TimeCDT,TemperatureF,Dew PointF,Humidity,Sea Level PressureIn,VisibilityMPH,Wind Direction,Wind SpeedMPH,Gust SpeedMPH,PrecipitationIn,Events,Conditions,WindDirDegrees,DateUTC
12:53 AM,41.0,35.1,79,29.82,10.0,NE,4.6,-,N/A,,Overcast,50,2014-04-13 05:53:00
1:53 AM,41.0,35.1,79,29.85,10.0,NNE,3.5,-,N/A,,Overcast,20,2014-04-13 06:53:00
2:50 AM,41.0,35.6,81,29.81,10.0,North,4.6,-,N/A,,Overcast,10,2014-04-13 07:50:00
2:53 AM,41.0,36.0,82,29.85,10.0,North,4.6,-,N/A,,Overcast,10,2014-04-13 07:53:00
3:03 AM,41.0,35.6,81,29.81,10.0,North,4.6,-,N/A,,Overcast,10,2014-04-13 08:03:00
3:10 AM,41.0,35.6,81,29.81,10.0,North,3.5,-,N/A,,Overcast,10,2014-04-13 08:10:00
3:40 AM,39.2,35.6,87,29.82,10.0,NNW,4.6,-,N/A,,Overcast,330,2014-04-13 08:40:00
3:53 AM,39.9,35.1,83,29.86,10.0,NNW,4.6,-,N/A,,Overcast,330,2014-04-13 08:53:00
4:21 AM,41.0,35.6,81,29.83,10.0,NNW,5.8,-,N/A,,Overcast,340,2014-04-13 09:21:00
4:53 AM,39.9,35.1,83,29.88,10.0,NNW,6.9,-,N/A,,Overcast,340,2014-04-13 09:53:00
5:07 AM,39.2,35.6,87,29.84,10.0,NW,5.8,-,N/A,,Overcast,320,2014-04-13 10:07:00
5:33 AM,39.2,35.6,87,29.84,10.0,NNW,5.8,-,N/A,,Overcast,330,2014-04-13 10:33:00
5:53 AM,39.9,35.1,83,29.88,10.0,NNW,5.8,-,N/A,,Overcast,340,2014-04-13 10:53:00
6:53 AM,39.9,36.0,86,29.88,10.0,NNW,9.2,-,N/A,,Overcast,340,2014-04-13 11:53:00
7:02 AM,41.0,35.6,81,29.84,10.0,NNW,11.5,19.6,N/A,,Overcast,340,2014-04-13 12:02:00
7:53 AM,39.0,34.0,82,29.92,10.0,NNW,15.0,20.7,N/A,,Overcast,330,2014-04-13 12:53:00
8:53 AM,36.0,30.9,82,29.96,10.0,NNW,16.1,23.0,N/A,,Overcast,330,2014-04-13 13:53:00
9:53 AM,35.1,28.9,78,29.96,10.0,NNW,15.0,23.0,N/A,,Overcast,340,2014-04-13 14:53:00
10:53 AM,36.0,28.0,73,29.93,10.0,NNW,18.4,27.6,N/A,,Overcast,330,2014-04-13 15:53:00
11:34 AM,37.4,28.4,70,29.90,10.0,North,16.1,24.2,N/A,,Overcast,350,2014-04-13 16:34:00
11:53 AM,37.0,28.0,70,29.94,10.0,NNW,23.0,31.1,N/A,,Overcast,340,2014-04-13 16:53:00
12:53 PM,39.0,27.0,62,29.99,10.0,North,12.7,-,N/A,,Overcast,360,2014-04-13 17:53:00
1:53 PM,39.9,27.0,60,29.99,10.0,North,15.0,21.9,N/A,,Overcast,360,2014-04-13 18:53:00
2:53 PM,41.0,26.1,55,29.97,10.0,North,16.1,25.3,N/A,,Scattered Clouds,10,2014-04-13 19:53:00
3:53 PM,39.9,25.0,55,29.95,10.0,North,12.7,27.6,N/A,,Scattered Clouds,360,2014-04-13 20:53:00
4:53 PM,37.9,24.1,57,29.96,10.0,North,12.7,26.5,N/A,,Mostly Cloudy,350,2014-04-13 21:53:00
5:53 PM,36.0,24.1,62,29.99,10.0,North,21.9,27.6,N/A,,Clear,350,2014-04-13 22:53:00
6:53 PM,35.6,23.0,60,29.94,10.0,North,16.1,-,N/A,,Clear,350,2014-04-13 23:53:00
7:53 PM,35.1,21.9,59,29.99,10.0,North,15.0,23.0,N/A,,Clear,350,2014-04-14 00:53:00
8:53 PM,34.0,21.9,61,29.99,10.0,North,17.3,28.8,N/A,,Clear,350,2014-04-14 01:53:00
9:53 PM,33.1,21.0,61,30.01,10.0,North,16.1,29.9,N/A,,Clear,350,2014-04-14 02:53:00
10:53 PM,33.1,19.9,59,30.03,10.0,NNW,16.1,27.6,N/A,,Clear,340,2014-04-14 03:53:00
11:53 PM,32.0,19.0,59,30.05,10.0,North,17.3,29.9,N/A,,Partly Cloudy,360,2014-04-14 04:53:00